STARLINK-11305, 61247

Orbit data source: Space-Track

STARLINK-11305, 61247 is a payload satellite owned by SpaceX/Seattle (US) in LEO that was launched on Wed, 25 Sep 2024 UTC via an FALCON 9 launch vehicle from the Air Force Western Test Range (AFWTR). Payload-class satellites include a variety of spacecraft equipped with specific instruments for various scientific and technological missions. These include communications satellites like Starlink; space stations such as the ISS; scientific satellites like the Hubble; Earth observation satellites from companies like Planet Labs, Umbra, and HawkEye 360; GPS; miniature CubeSats for education and research; and military/defense satellites.

Loading next visibility...
Identifier
61247, 2024-175E
Orbit
LEO
Country
Flag of USUS
Related business
Manufacturer
SpaceX/Seattle
Mission
Operational Commercial Communications
Bus & Motor
STARLINK V2MD, Unknown motor
Mass
960 kg wet, ~910 kg dry
Launch date (UTC)
2024-09-25 (1 year ago)
Launch vehicle
FALCON 9
Launch site
Air Force Western Test Range (AFWTR)
Object type
Payload
Rocket body
Debris
Shape & HBR
Box + 2 Pan, 14.5 m
Radar Cross Section
36.964 m², Large (>1 m²)

Expand to show TLE details & history
Last TLE update: 18 hours ago

TLE from 18 hours ago
0 STARLINK-11305
1 61247U 24175E   25259.20014750 -.00005459  00000-0 -40271-4 0  9994
2 61247  53.1594 196.2384 0001427  84.8533 275.2648 15.69682746 55960
Epoch: 2025-09-16T04:48Z
TLE epoch observation values (Epoch: 2025-09-16T04:48:12.743Z)
Latitude
-0.00003°
Longitude
128.79142°
Altitude
360.632 km
Speed
7.694 km/s
True Right ascension
13h 04m 57s
True Declination
0° 00' 00"
Sunlit
Object was in daylight at epoch
Visualization orbit readout
Latitude
Unknown
Longitude
Unknown
Altitude
Unknown
Speed
Unknown
Apparent Right ascension
Unknown
Apparent Declination
Unknown
Sunlit
N/A
Visualization observer readout
Local Sidereal Time
15:19:57
Azimuth
Unknown
Elevation
Unknown
Doppler factor
Unknown
Orbital elements
Apogee altitude
361.027 km
Perigee altitude
359.104 km
Semi-major axis
6,738.203 km
Eccentricity
0.00014
Inclination
53.1594°
RAAN
196.2384°
Arg. of periapsis
84.8533°
True anomaly
275.24852°
Mean anomaly
275.2648°
Eccentric anomaly
275.25666°
Mean motion
3.92398 °/min
Orbital period
91.74 mins
BSTAR
-0.000040271
Loading maneuver chart data...
Computing Atmospheric mass density...
Loading historical data...
Loading historical data...
Loading historical data...
Loading historical data...
Loading historical data...
Loading historical data...
Loading historical data...

Documentation

Showing up to 5 results
|